Sheridan, WY

11:54 AM MDT on August 17, 2017 (GMT -0600)
Sheridan County

Weather History for KSHR - November, 2014

Change the Weather History Date:

Saturday, November 15, 2014

  Actual Average Record
Temperature  
Mean Temperature 1 °F 33 °F  
Max Temperature 11 °F 46 °F 72 °F (1975)
Min Temperature -9 °F 20 °F -18 °F (1955)
Degree Days  
Heating Degree Days 64 32  
Month to date heating degree days 552 431  
Since 1 July heating degree days 1281 1339  
Cooling Degree Days 0 0  
Month to date cooling degree days 0 0  
Year to date cooling degree days 346 419  
Moisture  
Dew Point -4 °F    
Average Humidity 75    
Maximum Humidity 87    
Minimum Humidity 63    
Precipitation  
Precipitation 0.11 in 0.02 in 0.31 in (1963)
Month to date precipitation 0.70 0.38  
Year to date precipitation 13.56 13.27  
Sea Level Pressure  
Sea Level Pressure 30.34 in    
Wind  
Wind Speed 7 mph (WNW)    
Max Wind Speed 20 mph    
Max Gust Speed 24 mph    
Visibility 5 miles    
Events Snow    
T = Trace of Precipitation, MM = Missing Value Source: NWS Daily Summary

Daily Weather History Graph

Daily Weather History Graph

Search for Another Location

Airport or City:

Trip Planner

Search our weather history database for the weather conditions in past years. The results will help you decide how hot, cold, wet, or windy it might be!

Date:

Astronomy

Nov. 15, 2014 Rise Set
Actual Time 7:05 AM MST 4:39 PM MST
Civil Twilight 6:33 AM MST 5:11 PM MST
Nautical Twilight 5:57 AM MST 5:46 PM MST
Astronomical Twilight 5:23 AM MST 6:21 PM MST
Moon 12:02 AM MST (11/15) 1:19 PM MST (11/15)
Length of Visible Light 10h 37m
Length of Day
9h 34m
Last Quarter, 39% of the Moon is Illuminated
Nov 15
Last Quarter
Nov 22
New
Nov 29
First Quarter
Dec 6
Full
Dec 14
Last Quarter

Hourly Weather History & Observations

Time (MST) Temp. Windchill Dew Point Humidity Pressure Visibility Wind Dir Wind Speed Gust Speed Precip Events Conditions
12:18 AM 5.0 °F -13.6 °F -0.9 °F 76% 30.09 in 2.0 mi NW 16.1 mph - 0.00 in Snow Light Snow
12:28 AM 3.9 °F -13.7 °F -0.9 °F 80% 30.09 in 1.8 mi NW 13.8 mph - 0.01 in Snow Light Snow
12:43 AM 3.9 °F -12.2 °F -0.9 °F 80% 30.09 in 2.0 mi NW 11.5 mph - 0.01 in Snow Light Snow
12:53 AM 3.9 °F -14.3 °F -2.0 °F 76% 30.33 in 3.0 mi WNW 15.0 mph - 0.01 in Snow Light Snow
1:06 AM 3.9 °F -16.1 °F -2.0 °F 76% 30.09 in 3.0 mi WNW 18.4 mph - 0.00 in Snow Light Snow
1:17 AM 3.0 °F -16.1 °F -2.0 °F 80% 30.10 in 2.0 mi WNW 16.1 mph - 0.00 in Snow Light Snow
1:53 AM 3.0 °F -14.8 °F -2.9 °F 76% 30.35 in 2.0 mi WNW 13.8 mph - 0.00 in Snow Light Snow
2:00 AM 3.0 °F -13.3 °F -2.9 °F 76% 30.12 in 1.5 mi WNW 11.5 mph - 0.01 in Snow Light Snow
2:53 AM 1.9 °F -11.8 °F -2.9 °F 80% 30.38 in 1.2 mi NW 8.1 mph - 0.03 in Snow Light Snow
3:53 AM 3.0 °F -11.5 °F -2.0 °F 80% 30.40 in 1.5 mi WNW 9.2 mph - 0.01 in Snow Light Snow
4:24 AM 3.0 °F -10.5 °F -2.0 °F 80% 30.17 in 2.0 mi WNW 8.1 mph - 0.02 in Snow Light Snow
4:53 AM 3.9 °F -9.4 °F -2.0 °F 76% 30.43 in 2.5 mi WNW 8.1 mph - 0.02 in Snow Light Snow
5:14 AM 3.9 °F -10.4 °F -2.0 °F 76% 30.19 in 1.5 mi WNW 9.2 mph - 0.00 in Snow Light Snow
5:32 AM 3.9 °F -13.7 °F -2.0 °F 76% 30.19 in 2.5 mi WNW 13.8 mph - 0.01 in Snow Light Snow
5:41 AM 3.9 °F -10.4 °F -2.0 °F 76% 30.20 in 4.0 mi WNW 9.2 mph - 0.01 in Snow Light Snow
5:53 AM 3.9 °F -9.4 °F -2.0 °F 76% 30.45 in 4.0 mi WNW 8.1 mph - 0.01 in Snow Light Snow
6:00 AM 3.9 °F -10.4 °F -2.0 °F 76% 30.21 in 3.0 mi WNW 9.2 mph - 0.00 in Snow Light Snow
6:08 AM 3.9 °F -11.3 °F -2.0 °F 76% 30.21 in 3.0 mi WNW 10.4 mph - 0.00 in Snow Light Snow
6:53 AM 3.0 °F -11.5 °F -2.0 °F 80% 30.48 in 3.0 mi NW 9.2 mph - 0.00 in Snow Light Snow
7:05 AM 3.0 °F -11.5 °F -2.9 °F 76% 30.24 in 2.5 mi WNW 9.2 mph - 0.01 in Snow Light Snow
7:17 AM 3.0 °F -12.5 °F -2.9 °F 76% 30.24 in 3.0 mi WNW 10.4 mph - 0.01 in   Haze
7:51 AM 3.2 °F -11.3 °F -2.2 °F 78% 30.26 in 2.5 mi WNW 9.2 mph - 0.01 in   Haze
7:53 AM 3.0 °F -11.5 °F -2.0 °F 80% 30.52 in 2.5 mi WNW 9.2 mph - 0.01 in   Haze
8:07 AM 3.0 °F -12.5 °F -2.0 °F 80% 30.26 in 1.8 mi NW 10.4 mph - 0.00 in Snow Light Snow
8:37 AM 5.0 °F -9.1 °F -0.9 °F 76% 30.27 in 2.0 mi WNW 9.2 mph - 0.01 in   Haze
8:53 AM 5.0 °F -8.1 °F -0.9 °F 76% 30.52 in 1.8 mi WNW 8.1 mph - 0.01 in   Haze
9:19 AM 5.0 °F -5.6 °F -0.9 °F 76% 30.26 in 3.0 mi West 5.8 mph - 0.01 in   Haze
9:29 AM 5.0 °F -5.6 °F -0.9 °F 76% 30.26 in 2.0 mi NW 5.8 mph - 0.01 in   Haze
9:35 AM 5.0 °F -4.1 °F -0.9 °F 76% 30.26 in 3.0 mi NW 4.6 mph - 0.01 in   Haze
9:53 AM 6.1 °F - -0.9 °F 73% 30.51 in 4.0 mi Calm Calm - 0.01 in   Haze
10:40 AM 8.1 °F - -0.0 °F 70% 30.26 in 9.0 mi Calm Calm - N/A   Overcast
10:53 AM 8.6 °F 2.0 °F 1.4 °F 73% 30.26 in 8.0 mi West 3.5 mph - N/A   Overcast
11:28 AM 10.0 °F 3.6 °F 1.9 °F 70% 30.26 in 7.0 mi NW 3.5 mph - N/A   Scattered Clouds
11:53 AM 9.0 °F -0.9 °F -0.0 °F 67% 30.49 in 10.0 mi NW 5.8 mph - N/A   Partly Cloudy
12:53 PM 8.1 °F -9.6 °F -0.9 °F 67% 30.49 in 10.0 mi NW 16.1 mph - N/A   Clear
1:53 PM 8.1 °F -9.0 °F -2.0 °F 64% 30.48 in 10.0 mi NW 15.0 mph - N/A   Clear
2:53 PM 7.0 °F -5.7 °F -2.0 °F 67% 30.49 in 10.0 mi NW 8.1 mph - N/A   Clear
3:53 PM 3.9 °F -3.4 °F -4.0 °F 70% 30.48 in 10.0 mi WSW 3.5 mph - N/A   Clear
4:53 PM -5.1 °F -17.6 °F -11.0 °F 76% 30.51 in 9.0 mi West 5.8 mph - 0.00 in Snow Light Snow
5:53 PM -6.0 °F -18.6 °F -11.9 °F 75% 30.52 in 9.0 mi SW 5.8 mph - 0.00 in Snow Light Snow
6:53 PM -8.0 °F - -11.9 °F 83% 30.52 in 10.0 mi Calm Calm - 0.00 in   Clear
7:53 PM -7.1 °F - -11.9 °F 79% 30.50 in 10.0 mi Calm Calm - N/A   Clear
8:53 PM -6.0 °F -18.6 °F -11.9 °F 75% 30.47 in 10.0 mi South 5.8 mph - N/A   Clear
9:53 PM -6.0 °F -20.1 °F -11.9 °F 75% 30.45 in 10.0 mi SSW 6.9 mph - N/A   Clear
10:53 PM -2.9 °F - -11.0 °F 68% 30.40 in 10.0 mi Calm Calm - N/A   Clear
11:53 PM -2.9 °F -13.3 °F -11.0 °F 68% 30.38 in 10.0 mi South 4.6 mph - 0.00 in   Clear